Temp
10 10 12 13 13 13 14 14 13 12 11 9 11 11 10 10 10 11 10 10 10 10 10 9 9 9 8 8 9 8 9 9 9 9 9 9 8 8 9 9 9 9 9 8
10 11 13 13 14 14 15 14 12 11 10 10 10 11 11 10 10 10 10 10 10 9 9 9 9 9 9 8 9 10 9 9 9 10 9 9 8 8 9 10 9 9 9 9
11 13 13 13 14 14 14 14 12 12 11 10 10 9 9 10 9 10 10 10 10 9 9 9 9 8 9 8 10 10 9 9 9 9 10 9 9 9 9 9 10 9 9 10
12 13 13 14 14 14 13 13 12 12 12 9 8 9 9 9 10 10 10 10 10 9 8 9 8 9 9 9 10 9 9 9 9 9 10 9 9 8 8 8 9 9 9 10
12 13 14 14 14 15 12 13 13 12 12 11 7 7 10 9 11 11 11 9 10 10 10 9 9 8 9 9 10 9 9 9 9 9 9 10 9 10 9 9 10 10 9 10
13 14 14 15 15 15 14 12 12 11 10 9 11 8 10 12 14 14 12 11 10 10 9 9 8 9 9 8 9 10 9 10 10 10 10 10 10 10 10 10 9 10 10 10
13 14 15 15 14 14 14 12 12 10 11 12 12 10 13 14 14 14 14 12 12 11 10 9 9 9 9 9 10 10 9 10 10 10 10 10 10 10 10 10 10 10 10 10
13 14 14 14 14 14 15 15 14 9 10 12 14 13 11 14 12 12 12 12 11 11 10 9 10 8 9 9 10 10 9 9 10 10 10 10 10 10 10 10 10 10 10 10
13 14 14 14 14 14 15 15 15 13 14 13 14 12 12 13 12 12 10 10 10 11 10 10 9 9 9 9 9 10 10 9 10 10 10 10 10 10 10 10 10 11 10 12
13 13 14 14 14 14 14 15 15 15 12 13 16 13 14 14 13 12 11 10 9 11 10 9 9 9 9 9 8 10 10 9 10 10 10 10 10 10 10 10 10 11 11 11
12 13 13 14 14 14 14 14 14 15 16 12 11 14 16 13 13 13 13 12 10 11 11 9 9 10 9 8 8 10 9 10 10 10 10 10 10 10 10 10 10 10 11 11
12 12 13 14 14 14 14 15 15 15 15 16 16 13 13 14 14 13 13 13 12 12 11 10 10 10 9 9 9 9 9 10 10 10 10 10 10 10 10 10 10 10 10 11
12 12 12 12 14 14 14 14 15 15 15 16 15 13 13 13 12 11 11 12 12 12 10 10 10 9 10 9 9 9 9 10 10 9 10 10 10 10 10 10 10 10 10 10
11 11 11 9 10 11 11 12 14 14 15 16 13 13 11 12 12 11 11 11 12 11 11 9 9 10 10 9 8 8 9 9 9 9 9 10 10 10 10 10 10 10 9 10
10 11 11 11 11 11 11 12 13 14 15 15 13 12 12 12 12 10 11 12 12 11 10 9 9 9 9 9 9 9 9 9 10 9 9 10 10 10 10 10 10 10 10 10
10 10 10 11 11 11 11 12 12 13 14 12 13 12 10 11 11 11 11 12 10 9 10 9 10 9 9 9 9 8 8 9 8 8 8 9 10 9 9 9 10 10 10 10
10 10 10 10 11 12 12 11 12 12 12 13 13 10 10 11 11 11 11 10 11 8 9 9 9 10 9 9 8 8 9 9 9 9 9 9 9 9 9 9 9 10 10 10
10 10 10 10 10 9 10 11 11 10 9 10 11 9 10 10 11 11 9 9 9 9 9 9 9 9 10 9 9 9 9 9 9 9 9 8 9 9 9 9 9 9 9 9
9 9 9 9 9 10 10 10 10 9 9 8 8 8 8 9 9 10 9 9 8 8 9 8 9 8 8 9 8 9 9 9 9 8 8 8 8 9 9 9 8 8 8 8
9 9 9 9 9 8 9 9 9 9 8 8 7 7 7 7 8 9 9 9 9 9 8 8 8 8 8 8 9 9 9 9 9 8 9 9 9 9 9 8 8 8 8 8
8 8 8 9 9 8 7 7 8 8 7 7 7 7 6 7 8 9 9 9 10 10 9 8 9 9 9 9 9 9 9 8 8 8 8 8 8 9 9 7 7 7 7 8
7 7 7 7 7 7 6 7 7 6 6 6 6 7 7 6 7 7 8 8 8 9 8 8 8 9 8 9 8 9 9 6 7 7 7 7 8 8 8 7 7 6 7 7
7 7 7 6 6 5 6 5 5 6 5 6 7 6 6 6 7 7 7 7 7 7 7 7 7 7 7 8 8 8 7 6 6 6 7 7 7 7 7 7 6 7 6 6
6 6 6 6 5 5 5 5 5 5 5 5 5 5 6 5 5 6 6 7 7 7 7 7 6 6 5 6 6 7 6 6 5 6 5 5 5 7 6 6 6 5 5 5
6 6 6 5 5 5 5 5 4 4 5 4 4 4 4 5 5 5 5 5 6 6 6 6 6 6 5 5 5 5 5 5 5 5 5 5 5 5 5 5 4 5 5 5
5 5 5 4 4 3 3 4 4 5 4 4 4 4 4 4 4 4 5 5 5 5 5 5 5 5 5 4 4 4 5 5 5 4 5 4 4 4 4 4 4 4 4 4
Height
3152 3154 3154 3159 3161 3162 3167 3167 3169 3172 3174 3176 3177 3178 3181 3188 3190 3194 3196 3200 3201 3203 3206 3204 3207 3208 3210 3210 3212 3213 3215 3218 3221 3222 3222 3224 3225 3227 3229 3232 3234 3236 3239 3239
3152 3151 3154 3158 3159 3163 3164 3164 3168 3173 3169 3177 3180 3179 3180 3186 3189 3192 3194 3195 3198 3200 3203 3204 3206 3208 3209 3210 3212 3214 3216 3217 3220 3222 3223 3225 3226 3229 3230 3232 3233 3235 3238 3239
3149 3150 3154 3157 3159 3162 3165 3163 3167 3171 3174 3178 3177 3180 3181 3186 3185 3189 3193 3196 3196 3200 3199 3203 3205 3207 3209 3210 3210 3214 3215 3217 3219 3222 3223 3225 3226 3229 3231 3232 3235 3236 3237 3241
3149 3148 3154 3156 3158 3161 3163 3164 3168 3168 3169 3172 3175 3177 3180 3182 3185 3186 3188 3191 3195 3195 3197 3200 3205 3207 3209 3210 3211 3213 3215 3217 3219 3220 3223 3225 3227 3229 3231 3232 3234 3236 3238 3240
3145 3146 3149 3154 3157 3160 3163 3167 3165 3166 3166 3162 3173 3184 3178 3180 3178 3179 3182 3185 3189 3195 3195 3198 3202 3204 3208 3210 3213 3214 3215 3217 3219 3221 3223 3224 3227 3229 3231 3232 3235 3237 3238 3241
3143 3145 3148 3151 3154 3157 3162 3165 3167 3168 3167 3164 3164 3170 3171 3166 3162 3168 3175 3180 3183 3188 3192 3195 3198 3201 3205 3209 3211 3213 3216 3217 3219 3221 3223 3225 3226 3229 3231 3232 3233 3236 3238 3240
3141 3142 3145 3148 3150 3157 3160 3161 3169 3171 3166 3160 3165 3167 3163 3160 3160 3166 3168 3174 3177 3184 3188 3191 3195 3201 3203 3207 3210 3213 3216 3217 3219 3221 3224 3225 3227 3228 3231 3233 3235 3236 3237 3239
3141 3142 3142 3144 3149 3153 3157 3159 3159 3174 3169 3164 3163 3164 3159 3161 3168 3169 3173 3177 3180 3183 3186 3187 3193 3196 3200 3203 3207 3211 3215 3218 3220 3221 3223 3225 3227 3228 3230 3231 3233 3236 3236 3237
3140 3139 3141 3142 3146 3151 3152 3155 3157 3162 3161 3161 3158 3162 3162 3162 3167 3167 3171 3175 3175 3178 3184 3186 3191 3196 3201 3201 3203 3211 3213 3216 3220 3222 3224 3225 3227 3229 3230 3231 3231 3234 3235 3237
3140 3140 3138 3140 3143 3146 3149 3154 3156 3157 3159 3159 3154 3159 3160 3160 3169 3168 3170 3169 3174 3175 3180 3185 3189 3194 3199 3200 3205 3209 3212 3215 3218 3221 3223 3225 3227 3228 3230 3230 3231 3232 3235 3236
3139 3139 3138 3139 3141 3144 3148 3148 3152 3154 3154 3154 3156 3155 3157 3159 3164 3164 3162 3168 3167 3175 3179 3182 3187 3192 3196 3196 3200 3206 3210 3212 3215 3219 3221 3224 3226 3227 3229 3230 3231 3231 3233 3234
3139 3139 3135 3137 3140 3143 3145 3147 3149 3151 3151 3150 3150 3154 3155 3158 3160 3159 3156 3160 3165 3169 3175 3179 3183 3187 3193 3196 3197 3199 3205 3209 3211 3216 3219 3221 3223 3225 3227 3228 3230 3231 3232 3234
3140 3141 3139 3137 3139 3141 3142 3146 3147 3148 3149 3147 3150 3155 3154 3158 3161 3161 3160 3164 3165 3169 3173 3177 3179 3184 3187 3192 3195 3198 3202 3205 3206 3208 3215 3218 3220 3222 3224 3226 3227 3228 3230 3231
3141 3143 3142 3146 3144 3143 3142 3141 3142 3143 3146 3147 3147 3149 3155 3158 3160 3160 3161 3160 3159 3165 3172 3173 3177 3180 3183 3187 3191 3194 3194 3199 3201 3203 3208 3213 3215 3219 3220 3222 3224 3224 3226 3228
3141 3142 3142 3142 3141 3141 3144 3143 3142 3144 3143 3146 3149 3148 3152 3156 3158 3160 3162 3161 3158 3157 3170 3173 3175 3179 3181 3183 3187 3190 3188 3191 3194 3201 3203 3207 3211 3214 3216 3218 3220 3222 3223 3224
3142 3142 3140 3141 3143 3143 3145 3145 3145 3142 3142 3141 3144 3146 3150 3152 3153 3156 3158 3160 3160 3153 3166 3173 3173 3176 3179 3183 3186 3185 3185 3186 3172 3189 3201 3204 3208 3208 3213 3214 3215 3216 3219 3220
3141 3141 3142 3143 3143 3144 3148 3150 3147 3145 3141 3141 3143 3146 3149 3149 3151 3153 3156 3155 3161 3163 3164 3168 3171 3172 3176 3179 3182 3184 3186 3188 3187 3192 3196 3200 3203 3204 3206 3208 3210 3212 3213 3215
3142 3142 3144 3144 3145 3146 3147 3147 3148 3149 3149 3146 3146 3148 3148 3149 3149 3151 3154 3157 3159 3162 3166 3167 3168 3171 3173 3177 3183 3185 3186 3189 3191 3192 3194 3196 3198 3200 3201 3202 3204 3205 3206 3208
3142 3142 3144 3145 3146 3147 3145 3146 3145 3149 3152 3147 3147 3147 3148 3149 3150 3152 3157 3159 3161 3164 3166 3168 3170 3170 3173 3176 3179 3182 3185 3189 3190 3191 3192 3194 3196 3197 3197 3196 3196 3197 3198 3201
3141 3141 3143 3145 3146 3146 3146 3147 3148 3150 3150 3151 3149 3149 3151 3152 3153 3154 3156 3160 3162 3163 3167 3168 3168 3170 3173 3174 3178 3179 3181 3182 3184 3186 3188 3189 3189 3189 3189 3188 3189 3189 3187 3190
3139 3139 3141 3141 3142 3142 3142 3144 3144 3148 3156 3151 3148 3148 3150 3153 3155 3155 3156 3157 3159 3160 3163 3165 3165 3167 3167 3168 3173 3176 3177 3178 3179 3180 3181 3182 3184 3183 3182 3182 3183 3183 3184 3186
3142 3142 3142 3141 3141 3143 3143 3144 3146 3148 3149 3149 3149 3146 3147 3149 3151 3150 3152 3154 3154 3154 3158 3161 3162 3163 3164 3165 3167 3169 3170 3172 3173 3174 3176 3177 3178 3177 3176 3176 3178 3180 3181 3181
3141 3141 3141 3143 3142 3141 3141 3143 3143 3145 3147 3148 3149 3144 3143 3145 3148 3150 3151 3153 3152 3153 3156 3156 3157 3160 3161 3162 3161 3162 3163 3166 3167 3168 3170 3172 3173 3174 3173 3173 3175 3177 3178 3180
3138 3138 3138 3138 3137 3137 3138 3140 3141 3143 3143 3146 3145 3143 3144 3144 3144 3146 3148 3148 3149 3149 3151 3152 3152 3154 3156 3157 3156 3157 3158 3161 3162 3161 3164 3166 3168 3170 3171 3172 3172 3173 3175 3176
3136 3135 3134 3133 3132 3133 3134 3136 3139 3141 3142 3143 3142 3141 3143 3143 3143 3142 3143 3144 3144 3146 3147 3147 3148 3150 3151 3152 3152 3152 3153 3155 3156 3157 3159 3159 3161 3164 3166 3167 3169 3170 3171 3172
3131 3130 3130 3129 3128 3129 3130 3131 3132 3136 3139 3141 3138 3139 3140 3141 3141 3140 3140 3141 3142 3143 3143 3145 3146 3146 3145 3145 3146 3146 3148 3149 3151 3152 3151 3155 3157 3157 3159 3160 3162 3164 3166 3166
Wind_Speed
18 18 21 21 13 15 14 15 7 12 10 11 10 10 26 32 28 28 27 22 23 24 17 15 13 16 14 15 13 13 10 9 8 10 13 16 19 18 14 15 9 8 11 19
13 18 19 19 11 15 15 14 11 9 7 9 9 7 19 31 30 26 31 28 30 26 21 19 12 8 11 8 15 10 12 12 11 10 13 13 17 14 13 12 11 9 9 11
16 9 13 14 14 13 11 15 7 5 11 12 13 11 25 33 33 27 33 31 26 28 27 16 15 10 9 10 16 12 14 14 12 10 11 13 11 13 12 12 10 10 11 12
17 12 17 17 17 12 4 4 4 4 7 8 14 3 24 35 32 31 32 32 36 23 25 25 21 12 10 9 14 14 12 14 12 12 14 13 12 12 13 11 9 10 11 14
19 14 15 20 16 17 10 5 1 5 1 12 10 15 20 23 21 39 36 38 32 35 35 25 22 15 9 10 7 11 14 16 13 11 13 14 14 12 12 12 11 12 9 13
19 13 15 17 16 19 18 9 4 6 9 6 18 16 21 30 21 23 34 34 42 40 37 32 28 27 18 17 9 12 15 17 14 12 13 14 13 11 12 12 11 12 11 11
17 17 13 15 9 10 13 18 10 4 4 2 11 19 20 25 18 22 27 36 29 41 37 35 29 26 19 17 12 8 16 16 14 15 13 13 12 10 10 10 10 10 10 10
15 16 9 13 15 18 19 14 10 4 1 9 19 9 8 20 19 30 17 23 31 30 34 34 28 31 26 25 18 14 16 16 15 15 15 14 12 11 11 9 8 8 12 14
10 22 16 17 15 18 9 13 16 8 11 5 5 8 10 8 9 13 18 28 29 34 38 30 32 35 31 29 23 19 16 16 16 16 15 15 13 10 8 7 7 9 10 7
7 17 11 13 15 20 15 12 7 13 4 4 2 6 5 9 11 12 16 24 31 31 31 36 33 27 38 21 26 22 20 18 18 19 17 16 14 12 9 9 8 7 5 7
6 6 9 17 18 15 12 17 9 10 8 5 2 1 7 4 19 8 21 27 26 27 28 29 38 33 24 23 30 28 22 19 18 18 18 18 16 14 12 11 10 9 6 6
9 9 17 4 13 15 14 15 13 17 12 13 11 2 7 6 3 11 1 24 24 24 17 26 35 34 30 30 29 34 28 21 19 17 17 16 16 16 15 14 12 11 10 9
6 5 8 11 7 6 6 15 13 18 17 23 8 3 17 12 5 14 22 21 26 22 29 26 27 33 36 35 28 31 31 25 22 20 20 19 18 16 15 14 14 13 11 9
2 7 7 12 14 7 15 11 7 14 14 17 5 17 15 8 8 8 12 27 29 24 22 27 33 29 30 29 31 28 27 34 23 22 19 20 18 16 14 13 13 14 14 12
2 3 10 8 11 8 13 12 13 19 18 5 14 12 5 0 5 10 11 14 28 30 20 26 33 33 29 30 25 19 8 31 32 28 20 18 14 15 13 13 14 14 15 14
4 5 6 7 4 7 13 13 14 17 16 15 5 6 11 6 6 7 10 15 9 20 21 14 17 20 22 21 21 13 14 25 31 12 18 16 13 15 16 16 15 16 16 16
5 4 6 7 10 5 5 11 7 17 14 5 4 3 1 6 10 7 3 6 5 5 21 20 17 16 11 14 19 20 17 18 19 16 18 19 22 20 21 23 21 22 21 21
10 5 7 8 10 4 5 4 9 13 31 16 6 9 9 7 11 6 7 10 11 11 10 16 17 18 19 14 15 14 16 18 18 19 21 21 21 22 24 26 28 27 27 27
3 4 6 3 11 9 5 3 6 2 10 17 19 15 12 9 6 9 7 9 10 10 8 9 10 14 14 13 12 14 16 18 19 20 21 20 20 23 26 28 28 27 32 32
7 4 3 7 6 3 9 8 6 4 6 5 12 11 7 7 8 7 5 8 7 7 7 12 15 17 18 15 16 18 19 18 17 19 20 21 20 20 22 22 16 16 35 34
5 5 7 11 12 3 3 6 6 6 3 2 7 9 10 7 5 11 13 15 15 19 11 11 14 15 16 17 19 17 18 19 19 21 21 19 20 19 15 12 19 19 15 19
5 7 10 8 7 1 3 2 1 1 5 8 6 15 16 11 10 10 8 8 12 18 15 14 15 14 13 15 16 16 14 14 13 13 18 16 13 11 9 10 16 14 8 14
4 6 6 4 3 4 7 8 10 8 4 7 8 13 14 14 7 7 5 4 5 5 14 14 14 14 15 15 17 17 15 17 15 15 18 16 18 15 11 10 10 14 17 14
11 9 10 9 11 15 12 12 13 12 4 3 6 11 14 15 14 10 13 13 10 6 7 9 12 13 13 15 17 19 20 19 17 23 19 20 26 18 14 13 13 10 12 11
9 14 16 15 15 18 17 17 14 10 4 3 7 12 10 10 8 12 11 11 10 8 5 4 4 8 9 11 10 12 11 15 21 24 24 25 26 27 18 21 19 16 17 14
9 13 11 12 13 9 8 4 9 16 5 10 12 13 11 9 10 6 9 8 9 9 7 7 7 7 9 9 11 12 17 18 20 22 27 26 24 24 25 24 21 18 17 16
Wind_Direction
211 218 211 195 190 229 270 203 188 206 182 184 187 191 200 180 175 180 167 187 189 199 213 228 244 227 219 225 209 200 162 163 148 151 152 163 164 163 171 167 160 158 135 147
204 244 216 208 217 254 257 254 268 218 189 223 218 181 184 178 172 190 172 192 196 189 196 221 234 239 205 221 216 188 170 162 178 190 166 163 167 174 175 175 172 171 144 152
217 227 213 210 243 260 256 278 203 246 206 214 184 193 185 178 186 189 187 190 199 193 190 201 221 237 244 223 209 182 188 187 187 201 187 184 169 145 138 158 169 174 180 166
233 201 228 215 233 234 291 60 151 289 124 141 201 220 187 185 200 200 203 209 203 184 197 189 208 220 202 214 200 184 188 192 189 188 196 165 166 155 170 179 186 173 184 164
227 234 233 214 213 221 201 286 159 257 204 125 164 270 201 195 211 214 213 205 203 202 202 202 200 192 228 204 207 215 191 191 187 189 192 182 179 197 181 171 170 166 172 171
232 226 234 227 215 226 196 155 172 175 148 174 184 176 208 203 216 206 212 204 212 208 201 202 204 200 201 227 206 209 205 188 190 192 192 201 197 204 194 183 183 166 174 177
235 235 223 220 191 188 202 141 152 238 236 271 218 173 243 222 193 208 205 210 208 203 199 200 207 209 206 210 203 182 210 204 200 197 204 196 192 203 185 183 189 189 180 183
228 240 183 210 214 222 232 203 237 73 331 295 310 200 295 233 210 219 223 221 219 210 194 200 199 188 213 213 208 184 200 207 205 196 198 208 202 188 186 181 184 195 195 181
251 238 231 218 212 217 215 200 242 197 248 252 176 147 122 122 198 214 223 229 230 217 207 215 212 211 218 208 222 207 198 211 217 211 203 201 204 216 206 187 210 211 218 207
276 268 275 205 220 215 241 223 276 222 190 232 238 121 161 211 260 270 225 215 220 228 213 209 203 204 189 219 224 228 215 216 215 218 212 207 208 216 213 213 219 207 188 204
275 330 314 200 205 218 241 250 258 275 298 198 164 189 312 154 193 248 240 221 204 221 208 212 216 218 214 219 223 202 213 208 217 215 216 214 216 215 219 218 220 233 210 195
234 296 314 241 199 224 222 242 250 263 281 303 292 227 113 91 302 249 198 218 218 208 210 207 221 225 212 220 227 231 218 213 203 218 221 216 216 224 225 227 224 229 237 206
192 337 349 294 258 164 232 257 274 257 254 275 305 143 157 140 148 194 203 206 207 221 216 213 212 217 223 219 217 204 221 209 203 203 219 217 213 214 221 223 230 227 224 235
112 40 67 138 289 306 333 329 308 298 300 256 44 147 160 161 200 186 193 210 209 202 217 206 205 214 225 229 228 241 255 203 205 206 207 215 216 218 216 227 229 226 230 235
344 20 30 28 4 203 295 329 338 336 278 325 136 92 78 70 280 230 245 242 215 191 202 195 204 227 229 230 223 231 209 217 202 204 197 215 205 210 224 229 236 234 230 230
338 338 14 331 334 352 267 336 319 334 2 100 141 96 88 70 35 333 321 275 241 158 204 209 224 232 237 228 221 256 232 212 195 200 209 194 210 225 241 244 240 242 240 241
3 16 352 308 336 247 219 324 307 348 6 46 64 116 8 318 9 338 115 228 263 190 198 205 203 204 222 242 234 227 232 209 227 238 239 237 249 255 253 249 249 248 245 242
301 340 333 288 324 347 145 191 228 46 59 33 20 33 357 331 329 257 147 156 157 174 215 214 218 215 226 229 229 224 214 212 221 235 237 236 243 252 254 253 254 252 244 236
279 335 311 17 334 295 265 32 108 229 29 37 28 27 38 73 112 96 98 161 201 207 208 247 257 245 237 225 223 226 221 230 247 246 241 243 252 253 253 257 252 248 245 242
253 259 311 305 296 244 295 287 284 33 118 77 16 18 42 66 214 175 66 346 319 320 238 228 245 248 242 249 240 244 245 241 239 239 241 251 259 259 261 253 236 251 244 239
329 344 314 305 315 314 241 266 268 260 194 344 303 327 335 340 313 309 307 292 282 274 269 253 257 259 268 256 251 241 242 245 247 246 247 244 251 265 263 252 243 268 275 251
315 290 313 335 328 243 191 204 280 335 265 254 251 282 296 324 337 347 340 282 256 263 260 255 254 257 260 263 255 253 242 244 254 244 237 246 249 253 247 236 245 246 190 220
279 240 265 291 240 287 240 217 193 197 305 266 285 274 291 308 322 298 278 285 309 290 246 255 261 264 259 260 264 266 264 244 244 238 243 244 266 254 257 253 231 232 231 249
277 285 266 246 245 250 229 219 202 199 172 81 300 269 268 275 287 269 263 278 289 311 284 263 253 249 266 279 278 274 271 244 249 235 250 244 236 238 240 208 199 211 224 241
270 281 290 292 276 269 239 240 210 204 162 43 239 279 277 282 289 260 252 255 276 276 270 289 294 268 272 281 280 292 285 267 265 246 252 242 225 238 227 217 214 224 237 242
277 279 276 272 291 246 243 241 289 250 204 225 248 261 271 289 276 273 251 252 264 264 263 270 283 279 275 273 276 283 269 273 274 268 234 247 244 231 230 220 217 224 225 224